#timestamp,LO_Frequency,Hit,StdDev 
1506715215.4,286046998.5,P
1506715235.3,286046999.2,P
1506715255.1,286046999.2,N
1506715275.8,286046998.1,Y
1506715295.7,286046999.8,P
1506715315.5,286046999.8,N
1506715335.4,286046999.7,N
1506715355.2,286046999.7,N
1506715375.0,286047002.4,Y
1506715375.9,286047002.4,P
1506715395.8,286047003.9,N
1506715415.6,286047002.1,N
1506715435.5,286047001.6,N
1506715455.3,286047004.3,Y
1506715475.1,286046998.5,P
1506715495.9,286046998.5,N
1506715515.7,286047001.2,N
1506715535.6,286047000.6,N
1506715555.4,286047000.6,N
1506715575.2,286047000.8,N
1506715595.1,286047000.8,N
1506715596.0,286047000.8,N
1506715615.8,286047001.2,N
1506715635.6,286047001.1,N
1506715655.5,286047000.3,N
1506715675.3,286047002.7,N
1506715695.2,286047002.2,N
1506715715.9,286047004.3,Y
1506715735.7,286047002.2,P
1506715755.6,286046999.9,N
1506715775.4,286047000.7,N
1506715795.3,286047000.4,N
1506715815.1,286047001.1,N
1506715816.0,286047001.1,N
1506715835.8,286047002.8,Y
1506715855.7,286047000.8,P
1506715875.5,286047000.5,P
1506715895.3,286047001.6,P
1506715915.2,286047002.7,Y
1506715935.0,286047000.3,P
1506715935.9,286047000.3,N
1506715955.8,286047000.4,N
1506715975.6,286046998.3,Y
1506715995.4,286046996.7,P
1506716015.3,286046997.7,N
1506716035.1,286046996.7,N
1506716055.9,286046996.9,N
1506716075.7,286046996.7,N
1506716095.5,286046998.3,N
1506716115.4,286046998.9,N
1506716135.2,286046998.3,N
1506716155.0,286046998.7,N
1506716155.9,286046998.7,N
1506716175.8,286047000.5,N
1506716195.6,286047001.0,N
1506716215.5,286047001.8,N
1506716235.3,286047002.8,N
1506716255.1,286047000.5,N
1506716275.9,286047003.2,N
1506716295.7,286047003.2,N
1506716315.6,286047004.3,N
1506716335.4,286047003.8,N
1506716355.2,286047003.4,N
1506716375.1,286047006.0,N
1506716376.0,286047006.0,N
1506716395.8,286047003.1,N
1506716415.7,286047003.4,N
1506716435.5,286047004.2,N
1506716455.3,286047003.9,N
1506716475.2,286047001.5,N
1506716495.0,286047002.1,N
1506716495.9,286047002.1,N
1506716515.8,286047001.9,N
1506716535.6,286047002.7,N
1506716555.4,286047002.3,N
1506716575.3,286047002.0,N
1506716595.1,286047002.1,N
1506716615.8,286046999.8,N
1506716635.7,286047004.3,N
1506716655.5,286047001.4,N
1506716675.4,286047002.5,N
1506716695.2,286047004.0,N
1506716715.0,286047003.4,N
1506716715.9,286047003.4,N
1506716735.8,286047003.8,N
1506716755.6,286047003.2,N
1506716775.4,286047001.3,N
1506716795.3,286047002.0,N
1506716815.1,286047001.4,N
1506716835.9,286047002.5,N
1506716855.7,286047001.7,N
1506716875.5,286047001.4,N
1506716895.4,286047001.4,N
1506716915.2,286047001.3,N
1506716935.1,286047001.5,N
1506716936.0,286047001.5,N
1506716955.8,286047002.5,N
1506716975.6,286047002.6,N
1506716995.5,286047002.4,N
1506717015.3,286047003.8,Y
1506717035.1,286047001.9,P
1506717055.9,286046999.9,N
1506717075.7,286047002.4,N
1506717095.6,286047002.1,N
1506717115.4,286047002.0,N
1506717135.2,286047002.2,N
1506717155.1,286046999.8,N
1506717156.0,286046999.8,N
1506717175.8,286047001.9,N
1506717195.7,286047002.3,N
1506717215.5,286047002.0,N
1506717235.3,286046999.8,N
1506717255.2,286046999.8,N
1506717275.0,286047001.9,N
1506717275.9,286047001.9,N
1506717295.8,286047002.6,N
1506717315.6,286047001.8,N
1506717335.4,286047002.5,N
1506717355.3,286047002.0,N
1506717375.1,286047002.7,N
1506717395.8,286047001.7,N
1506717415.7,286047002.0,N
1506717435.5,286047001.5,N
1506717455.4,286047004.2,Y
1506717475.2,286047000.2,P
1506717495.0,286047002.7,P
1506717495.9,286047002.7,N
1506717515.8,286047000.1,N
1506717535.6,286047002.3,N
1506717555.4,286047002.0,N
1506717575.3,286047002.6,N
1506717595.1,286047000.0,N
1506717615.9,286047000.0,N
1506717635.7,286046999.7,N
1506717655.5,286047002.8,N
1506717675.4,286047000.5,N
1506717695.2,286047000.9,N
1506717715.0,286047000.1,N
1506717716.0,286047000.1,N
1506717735.8,286047002.0,N
1506717755.6,286047001.7,N
1506717775.5,286047001.4,N
1506717795.3,286047003.1,N
1506717815.2,286047003.6,Y
1506717835.9,286047002.0,P
1506717855.7,286047001.7,P
1506717875.6,286047002.3,P
1506717895.4,286047004.3,Y
1506717915.3,286047000.6,P
1506717935.1,286047001.1,N
1506717936.0,286047001.1,N
1506717955.8,286047001.2,N
1506717975.7,286047000.3,N
1506717995.5,286046999.8,N
1506718015.4,286047002.4,Y
1506718035.2,286047000.3,P
1506718055.0,286047001.1,P
1506718055.9,286047001.1,P
1506718075.8,286046998.6,Y
1506718095.6,286046999.3,P
1506718115.4,286046997.4,P
1506718135.3,286046996.7,N
1506718155.1,286046999.6,N
1506718175.9,286046997.0,N
1506718195.7,286046997.1,N
1506718215.5,286046999.5,N
1506718235.4,286046996.6,N
1506718255.2,286046997.2,N
1506718275.0,286046995.1,Y
1506718276.0,286046995.1,P
1506718295.8,286046999.1,N
1506718315.6,286046999.0,N
1506718335.5,286046998.3,N
1506718355.3,286046996.9,N
1506718375.1,286046997.0,N
1506718395.9,286046996.5,N
1506718415.7,286046999.3,N
1506718435.6,286046999.0,N
1506718455.4,286047000.0,N
1506718475.2,286047000.6,N
1506718495.1,286046999.5,N
1506718496.0,286046999.5,N
1506718515.8,286046997.0,N
1506718535.6,286047000.8,N
1506718555.5,286047002.4,N
1506718575.3,286046999.8,N
1506718595.2,286047000.9,N
1506718615.9,286047002.7,N
1506718635.7,286047002.8,N
1506718655.6,286047001.5,N
1506718675.4,286047002.1,N
1506718695.3,286047001.1,N
1506718715.1,286047000.7,N
1506718716.0,286047000.7,N
1506718735.8,286047000.6,N
1506718755.7,286047002.1,N
1506718775.5,286047002.3,N
1506718795.4,286047002.2,N
